Hourly Data Report for May 26, 2004

TORONTO CITY
ONTARIO

43°40'00.000" N
79°24'00.000" W
112.50 m
6158355
71508
XTO

Download Data

Hourly Data (May 2004)
Hourly Data Report for May 26, 2004
TIME
LST
Temp Definition
°C
Dew Point Definition
°C
Rel Hum Definition
%
Precip. Amount Definition
mm

Wind Dir Definition
10's deg

Wind Spd Definition
km/h
Visibility Definition
km
Stn Press Definition
kPa
Hmdx Definition


Wind Chill Definition


Weather Definition


00:00 12.1 11.1 94   LegendMM LegendMM LegendMM 99.54     LegendNANA
01:00 12.4 11.1 92   LegendMM LegendMM LegendMM 99.42     LegendNANA
02:00 12.6 11.3 92   LegendMM LegendMM LegendMM 99.37     LegendNANA
03:00 12.9 11.6 92   LegendMM LegendMM LegendMM 99.31     LegendNANA
04:00 11.9 11.0 94   LegendMM LegendMM LegendMM 99.36     LegendNANA
05:00 11.4 10.7 95   LegendMM LegendMM LegendMM 99.37     LegendNANA
06:00 11.6 10.9 95   LegendMM LegendMM LegendMM 99.40     LegendNANA
07:00 12.4 11.6 95   LegendMM LegendMM LegendMM 99.41     LegendNANA
08:00 12.7 11.8 94   LegendMM LegendMM LegendMM 99.38     LegendNANA
09:00 13.6 12.4 92   LegendMM LegendMM LegendMM 99.39     LegendNANA
10:00 15.7 13.6 87   LegendMM LegendMM LegendMM 99.35     LegendNANA
11:00 18.4 15.1 81   LegendMM LegendMM LegendMM 99.32     LegendNANA
12:00 19.3 14.8 75   LegendMM LegendMM LegendMM 99.26     LegendNANA
13:00 18.8 14.0 74   LegendMM LegendMM LegendMM 99.23     LegendNANA
14:00 21.5 14.1 63   LegendMM LegendMM LegendMM 99.19 25   LegendNANA
15:00 20.4 10.4 53   LegendMM LegendMM LegendMM 99.21     LegendNANA
16:00 19.4 10.0 55   LegendMM LegendMM LegendMM 99.15     LegendNANA
17:00 18.8 10.7 59   LegendMM LegendMM LegendMM 99.15     LegendNANA
18:00 19.0 10.3 57   LegendMM LegendMM LegendMM 99.22     LegendNANA
19:00 17.2 11.7 70   LegendMM LegendMM LegendMM 99.27     LegendNANA
20:00 15.2 10.8 75   LegendMM LegendMM LegendMM 99.34     LegendNANA
21:00 14.2 9.2 72   LegendMM LegendMM LegendMM 99.39     LegendNANA
22:00 13.5 7.1 65   LegendMM LegendMM LegendMM 99.40     LegendNANA
23:00 12.3 6.8 69   LegendMM LegendMM LegendMM 99.39     LegendNANA

Notes on Data Quality.

Legend

  • E = Estimated
  • M = Missing
  • NA = Not Available*
  • [empty] = Indicates an unobserved value
Date modified: